QPF
0.01 0.00 0.00 0.00 0.00 0.00 0.00 0.00 0.00 0.00 0.00 0.00 0.00 0.00 0.00 0.00 0.00 0.00 0.00 0.00 0.00 0.01 0.01 0.01 0.02 0.02 0.02 0.03 0.03 0.02 0.02 0.02 0.02 0.03 0.03 0.02 0.02 0.01 0.00 0.00 0.00 0.00 0.01 0.01
0.01 0.00 0.00 0.00 0.00 0.00 0.00 0.00 0.00 0.00 0.00 0.00 0.00 0.00 0.00 0.00 0.00 0.00 0.00 0.00 0.00 0.00 0.00 0.01 0.01 0.01 0.02 0.02 0.03 0.03 0.02 0.02 0.02 0.02 0.02 0.02 0.02 0.01 0.00 0.00 0.00 0.00 0.00 0.01
0.01 0.00 0.01 0.01 0.00 0.00 0.00 0.00 0.00 0.00 0.00 0.00 0.00 0.00 0.00 0.00 0.00 0.00 0.00 0.00 0.00 0.00 0.00 0.00 0.01 0.01 0.01 0.02 0.02 0.02 0.02 0.02 0.02 0.02 0.02 0.02 0.02 0.01 0.01 0.00 0.00 0.00 0.00 0.01
0.01 0.01 0.01 0.00 0.00 0.00 0.00 0.00 0.00 0.00 0.00 0.00 0.00 0.00 0.00 0.00 0.00 0.00 0.01 0.00 0.00 0.00 0.00 0.00 0.01 0.01 0.01 0.02 0.01 0.02 0.02 0.02 0.01 0.01 0.02 0.02 0.02 0.01 0.01 0.01 0.00 0.00 0.00 0.00
0.02 0.01 0.00 0.00 0.00 0.00 0.00 0.01 0.00 0.00 0.00 0.00 0.00 0.00 0.00 0.00 0.00 0.00 0.01 0.00 0.00 0.00 0.00 0.01 0.01 0.01 0.01 0.01 0.01 0.02 0.01 0.01 0.02 0.02 0.01 0.01 0.01 0.01 0.01 0.01 0.00 0.00 0.00 0.00
0.03 0.02 0.01 0.00 0.00 0.01 0.02 0.02 0.02 0.02 0.02 0.01 0.00 0.00 0.00 0.00 0.00 0.00 0.00 0.00 0.00 0.00 0.01 0.02 0.02 0.01 0.01 0.01 0.01 0.01 0.01 0.01 0.02 0.03 0.02 0.01 0.01 0.01 0.01 0.01 0.01 0.01 0.01 0.00
0.02 0.02 0.01 0.00 0.01 0.02 0.03 0.03 0.03 0.02 0.02 0.02 0.01 0.00 0.00 0.00 0.00 0.00 0.00 0.00 0.00 0.00 0.01 0.02 0.02 0.01 0.01 0.01 0.01 0.01 0.02 0.02 0.01 0.02 0.02 0.02 0.01 0.01 0.01 0.01 0.01 0.01 0.01 0.01
0.02 0.02 0.01 0.01 0.02 0.02 0.02 0.02 0.03 0.03 0.02 0.02 0.02 0.01 0.00 0.00 0.00 0.00 0.00 0.00 0.00 0.00 0.01 0.02 0.02 0.02 0.01 0.01 0.01 0.02 0.02 0.02 0.02 0.02 0.02 0.02 0.02 0.02 0.02 0.01 0.01 0.01 0.01 0.01
0.03 0.02 0.01 0.02 0.02 0.02 0.03 0.04 0.03 0.03 0.01 0.02 0.02 0.01 0.00 0.00 0.00 0.00 0.00 0.00 0.00 0.00 0.01 0.01 0.01 0.02 0.01 0.01 0.02 0.01 0.01 0.02 0.02 0.02 0.02 0.03 0.02 0.02 0.02 0.02 0.01 0.01 0.01 0.01
0.04 0.03 0.02 0.03 0.04 0.04 0.05 0.04 0.02 0.02 0.01 0.01 0.01 0.00 0.00 0.00 0.00 0.00 0.00 0.00 0.00 0.00 0.01 0.01 0.01 0.02 0.02 0.02 0.01 0.02 0.02 0.02 0.01 0.01 0.02 0.03 0.04 0.03 0.02 0.01 0.01 0.01 0.01 0.01
0.04 0.04 0.03 0.05 0.06 0.06 0.06 0.04 0.02 0.02 0.01 0.01 0.01 0.00 0.00 0.00 0.00 0.00 0.01 0.01 0.01 0.00 0.01 0.01 0.01 0.02 0.02 0.02 0.01 0.02 0.02 0.02 0.01 0.01 0.01 0.02 0.02 0.02 0.03 0.02 0.02 0.02 0.01 0.01
0.05 0.05 0.06 0.05 0.05 0.05 0.03 0.02 0.01 0.01 0.01 0.01 0.00 0.00 0.00 0.00 0.00 0.00 0.01 0.01 0.01 0.01 0.01 0.01 0.02 0.02 0.02 0.01 0.01 0.02 0.02 0.01 0.01 0.01 0.01 0.02 0.02 0.03 0.02 0.02 0.03 0.02 0.01 0.01
0.04 0.03 0.03 0.04 0.03 0.02 0.01 0.01 0.00 0.00 0.00 0.00 0.00 0.01 0.00 0.01 0.01 0.01 0.01 0.01 0.01 0.01 0.01 0.01 0.01 0.01 0.02 0.01 0.01 0.01 0.02 0.02 0.02 0.02 0.02 0.03 0.03 0.03 0.03 0.03 0.02 0.02 0.02 0.01
0.02 0.01 0.02 0.02 0.01 0.00 0.00 0.00 0.00 0.00 0.00 0.01 0.01 0.01 0.01 0.01 0.01 0.01 0.01 0.01 0.01 0.01 0.01 0.01 0.01 0.01 0.01 0.01 0.01 0.01 0.02 0.02 0.02 0.02 0.02 0.03 0.04 0.03 0.04 0.04 0.03 0.02 0.02 0.01
0.01 0.01 0.01 0.01 0.01 0.00 0.00 0.00 0.00 0.00 0.00 0.01 0.01 0.01 0.01 0.01 0.01 0.01 0.01 0.01 0.01 0.01 0.01 0.01 0.01 0.01 0.02 0.02 0.01 0.01 0.01 0.01 0.01 0.01 0.02 0.03 0.03 0.04 0.03 0.04 0.04 0.03 0.02 0.02
0.01 0.01 0.01 0.01 0.00 0.00 0.00 0.00 0.00 0.01 0.01 0.01 0.00 0.00 0.01 0.01 0.01 0.02 0.01 0.01 0.01 0.01 0.01 0.02 0.02 0.02 0.02 0.02 0.01 0.01 0.01 0.01 0.01 0.01 0.01 0.02 0.03 0.03 0.04 0.04 0.04 0.05 0.04 0.03
0.01 0.01 0.00 0.00 0.00 0.00 0.00 0.00 0.00 0.00 0.01 0.00 0.00 0.00 0.01 0.01 0.02 0.02 0.02 0.01 0.01 0.01 0.02 0.02 0.02 0.02 0.02 0.03 0.03 0.02 0.02 0.02 0.01 0.01 0.01 0.02 0.03 0.03 0.04 0.05 0.04 0.04 0.04 0.04
0.02 0.01 0.01 0.00 0.01 0.01 0.00 0.00 0.00 0.00 0.00 0.00 0.00 0.00 0.01 0.02 0.02 0.02 0.02 0.01 0.01 0.01 0.02 0.02 0.02 0.02 0.02 0.03 0.03 0.03 0.03 0.03 0.02 0.02 0.02 0.02 0.03 0.03 0.03 0.03 0.03 0.03 0.03 0.03
0.02 0.01 0.01 0.01 0.01 0.01 0.01 0.00 0.00 0.00 0.00 0.00 0.00 0.01 0.01 0.02 0.02 0.02 0.02 0.02 0.01 0.01 0.01 0.01 0.02 0.02 0.02 0.02 0.02 0.03 0.03 0.03 0.02 0.02 0.03 0.03 0.03 0.03 0.03 0.03 0.02 0.02 0.03 0.02
0.02 0.01 0.01 0.01 0.01 0.02 0.01 0.01 0.00 0.00 0.00 0.01 0.01 0.01 0.01 0.02 0.02 0.02 0.02 0.02 0.01 0.01 0.01 0.01 0.01 0.01 0.01 0.01 0.02 0.02 0.03 0.02 0.02 0.03 0.03 0.04 0.04 0.03 0.03 0.03 0.03 0.03 0.02 0.02
0.02 0.02 0.01 0.01 0.01 0.01 0.02 0.01 0.01 0.01 0.00 0.00 0.01 0.01 0.01 0.02 0.02 0.02 0.02 0.02 0.01 0.02 0.03 0.02 0.01 0.01 0.01 0.02 0.02 0.02 0.02 0.02 0.02 0.02 0.03 0.03 0.04 0.04 0.03 0.03 0.03 0.03 0.03 0.02
0.03 0.03 0.02 0.02 0.02 0.02 0.02 0.02 0.01 0.01 0.01 0.01 0.01 0.01 0.01 0.02 0.02 0.02 0.02 0.02 0.01 0.02 0.04 0.04 0.02 0.02 0.03 0.02 0.02 0.02 0.03 0.03 0.03 0.03 0.03 0.03 0.04 0.04 0.03 0.03 0.03 0.03 0.03 0.03
0.03 0.04 0.03 0.02 0.02 0.03 0.04 0.03 0.03 0.02 0.02 0.02 0.01 0.01 0.02 0.02 0.02 0.02 0.02 0.01 0.01 0.01 0.02 0.03 0.04 0.04 0.04 0.03 0.03 0.03 0.04 0.04 0.04 0.03 0.03 0.03 0.04 0.04 0.03 0.03 0.03 0.04 0.04 0.04
0.03 0.03 0.04 0.03 0.03 0.04 0.04 0.05 0.05 0.04 0.03 0.02 0.02 0.01 0.01 0.01 0.01 0.02 0.02 0.02 0.02 0.02 0.02 0.03 0.05 0.04 0.04 0.04 0.04 0.03 0.03 0.03 0.03 0.03 0.03 0.03 0.03 0.04 0.04 0.04 0.04 0.04 0.04 0.04
0.01 0.02 0.03 0.04 0.04 0.04 0.04 0.04 0.04 0.05 0.05 0.04 0.03 0.02 0.02 0.02 0.01 0.01 0.01 0.01 0.01 0.02 0.02 0.02 0.03 0.03 0.03 0.04 0.04 0.04 0.04 0.03 0.03 0.03 0.03 0.03 0.02 0.03 0.04 0.04 0.03 0.03 0.03 0.03
0.01 0.01 0.02 0.03 0.04 0.05 0.04 0.05 0.04 0.05 0.05 0.06 0.05 0.04 0.03 0.02 0.02 0.01 0.01 0.01 0.01 0.01 0.01 0.02 0.02 0.02 0.02 0.03 0.03 0.03 0.03 0.03 0.03 0.03 0.03 0.03 0.03 0.02 0.02 0.03 0.04 0.03 0.03 0.03
0.01 0.01 0.01 0.02 0.02 0.03 0.03 0.04 0.05 0.05 0.05 0.05 0.05 0.05 0.03 0.02 0.02 0.01 0.01 0.01 0.01 0.01 0.01 0.02 0.02 0.02 0.02 0.03 0.04 0.03 0.04 0.04 0.03 0.03 0.03 0.03 0.03 0.03 0.03 0.03 0.03 0.04 0.05 0.06
MSLP
1020.01 1020.46 1020.89 1021.28 1021.59 1021.78 1021.78 1021.57 1021.14 1020.48 1019.63 1018.67 1017.66 1016.71 1015.89 1015.26 1014.86 1014.69 1014.73 1014.95 1015.27 1015.65 1016.05 1016.43 1016.79 1017.13 1017.48 1017.85 1018.26 1018.74 1019.26 1019.83 1020.40 1020.96 1021.46 1021.88 1022.18 1022.38 1022.46 1022.45 1022.37 1022.24 1022.09 1021.96
1020.25 1020.60 1020.87 1021.05 1021.12 1021.05 1020.84 1020.47 1019.94 1019.26 1018.48 1017.64 1016.80 1016.02 1015.36 1014.86 1014.53 1014.39 1014.43 1014.60 1014.88 1015.23 1015.62 1016.03 1016.45 1016.89 1017.35 1017.86 1018.40 1018.99 1019.62 1020.27 1020.91 1021.52 1022.06 1022.51 1022.85 1023.08 1023.20 1023.21 1023.16 1023.05 1022.92 1022.80
1020.51 1020.74 1020.85 1020.82 1020.66 1020.38 1019.98 1019.46 1018.86 1018.18 1017.45 1016.72 1016.02 1015.38 1014.84 1014.43 1014.15 1014.02 1014.02 1014.15 1014.38 1014.69 1015.08 1015.53 1016.02 1016.57 1017.16 1017.81 1018.49 1019.20 1019.94 1020.67 1021.38 1022.04 1022.62 1023.11 1023.49 1023.76 1023.92 1023.97 1023.95 1023.87 1023.75 1023.63
1020.72 1020.81 1020.75 1020.53 1020.18 1019.72 1019.16 1018.54 1017.89 1017.22 1016.55 1015.91 1015.33 1014.80 1014.36 1014.01 1013.76 1013.61 1013.58 1013.66 1013.86 1014.15 1014.55 1015.03 1015.61 1016.26 1016.98 1017.75 1018.56 1019.39 1020.22 1021.03 1021.79 1022.50 1023.13 1023.66 1024.09 1024.40 1024.61 1024.71 1024.73 1024.67 1024.57 1024.46
1020.76 1020.71 1020.48 1020.10 1019.59 1018.99 1018.33 1017.65 1016.98 1016.34 1015.74 1015.19 1014.71 1014.28 1013.92 1013.62 1013.39 1013.25 1013.20 1013.25 1013.42 1013.71 1014.13 1014.66 1015.31 1016.06 1016.88 1017.76 1018.67 1019.58 1020.48 1021.35 1022.16 1022.90 1023.57 1024.14 1024.61 1024.98 1025.25 1025.41 1025.47 1025.45 1025.38 1025.26
1020.55 1020.35 1019.97 1019.46 1018.83 1018.14 1017.42 1016.72 1016.07 1015.48 1014.96 1014.52 1014.13 1013.81 1013.52 1013.29 1013.10 1012.97 1012.93 1012.98 1013.15 1013.46 1013.91 1014.49 1015.20 1016.02 1016.92 1017.87 1018.84 1019.81 1020.75 1021.64 1022.47 1023.24 1023.93 1024.53 1025.05 1025.47 1025.80 1026.02 1026.14 1026.17 1026.12 1026.02
1020.05 1019.70 1019.20 1018.58 1017.87 1017.14 1016.41 1015.73 1015.13 1014.62 1014.20 1013.86 1013.59 1013.37 1013.18 1013.02 1012.89 1012.81 1012.80 1012.88 1013.09 1013.43 1013.91 1014.54 1015.30 1016.17 1017.11 1018.10 1019.09 1020.07 1021.01 1021.90 1022.73 1023.50 1024.20 1024.83 1025.38 1025.85 1026.23 1026.51 1026.70 1026.78 1026.78 1026.70
1019.27 1018.79 1018.19 1017.50 1016.76 1016.02 1015.32 1014.69 1014.17 1013.75 1013.44 1013.22 1013.07 1012.96 1012.87 1012.81 1012.77 1012.76 1012.81 1012.96 1013.21 1013.60 1014.13 1014.79 1015.58 1016.47 1017.42 1018.41 1019.39 1020.35 1021.27 1022.13 1022.94 1023.69 1024.38 1025.02 1025.60 1026.11 1026.53 1026.87 1027.11 1027.25 1027.30 1027.26
1018.30 1017.72 1017.06 1016.34 1015.59 1014.88 1014.23 1013.68 1013.25 1012.94 1012.73 1012.62 1012.58 1012.59 1012.61 1012.65 1012.70 1012.79 1012.93 1013.14 1013.46 1013.90 1014.47 1015.16 1015.96 1016.85 1017.79 1018.74 1019.69 1020.61 1021.48 1022.30 1023.07 1023.80 1024.48 1025.12 1025.71 1026.24 1026.71 1027.09 1027.38 1027.57 1027.67 1027.68
1017.22 1016.60 1015.91 1015.20 1014.49 1013.83 1013.26 1012.79 1012.44 1012.23 1012.12 1012.11 1012.16 1012.26 1012.39 1012.52 1012.67 1012.85 1013.07 1013.36 1013.74 1014.23 1014.83 1015.54 1016.34 1017.20 1018.11 1019.03 1019.93 1020.80 1021.62 1022.41 1023.14 1023.84 1024.51 1025.14 1025.74 1026.28 1026.77 1027.19 1027.51 1027.75 1027.89 1027.95
1016.15 1015.53 1014.87 1014.20 1013.56 1012.97 1012.48 1012.09 1011.82 1011.68 1011.64 1011.70 1011.82 1011.99 1012.19 1012.40 1012.63 1012.89 1013.18 1013.54 1013.97 1014.49 1015.11 1015.82 1016.60 1017.44 1018.31 1019.18 1020.05 1020.88 1021.67 1022.43 1023.14 1023.83 1024.49 1025.12 1025.72 1026.27 1026.77 1027.20 1027.55 1027.81 1027.98 1028.09
1015.14 1014.57 1013.98 1013.40 1012.84 1012.35 1011.93 1011.61 1011.40 1011.31 1011.31 1011.40 1011.56 1011.77 1012.00 1012.26 1012.54 1012.85 1013.20 1013.60 1014.06 1014.60 1015.22 1015.92 1016.68 1017.49 1018.33 1019.17 1020.01 1020.82 1021.60 1022.36 1023.08 1023.78 1024.45 1025.09 1025.69 1026.25 1026.75 1027.18 1027.54 1027.81 1028.01 1028.14
1014.19 1013.72 1013.24 1012.76 1012.31 1011.91 1011.56 1011.31 1011.14 1011.06 1011.07 1011.17 1011.33 1011.54 1011.79 1012.07 1012.37 1012.71 1013.08 1013.50 1013.98 1014.52 1015.14 1015.82 1016.55 1017.33 1018.15 1018.98 1019.81 1020.63 1021.43 1022.22 1022.97 1023.70 1024.40 1025.06 1025.68 1026.24 1026.74 1027.17 1027.52 1027.80 1028.01 1028.17
1013.25 1012.91 1012.55 1012.20 1011.86 1011.55 1011.28 1011.07 1010.92 1010.85 1010.85 1010.93 1011.07 1011.27 1011.51 1011.78 1012.09 1012.44 1012.82 1013.25 1013.73 1014.26 1014.86 1015.52 1016.23 1017.00 1017.80 1018.63 1019.47 1020.32 1021.17 1022.00 1022.81 1023.60 1024.34 1025.04 1025.68 1026.26 1026.76 1027.19 1027.54 1027.81 1028.03 1028.20
1012.27 1012.05 1011.83 1011.60 1011.37 1011.14 1010.94 1010.76 1010.63 1010.56 1010.55 1010.60 1010.72 1010.89 1011.12 1011.39 1011.69 1012.04 1012.43 1012.85 1013.33 1013.85 1014.43 1015.07 1015.77 1016.52 1017.32 1018.16 1019.03 1019.92 1020.82 1021.71 1022.59 1023.44 1024.24 1024.99 1025.66 1026.26 1026.78 1027.21 1027.56 1027.85 1028.07 1028.26
1011.18 1011.08 1010.98 1010.86 1010.72 1010.57 1010.42 1010.27 1010.16 1010.08 1010.06 1010.09 1010.20 1010.36 1010.58 1010.85 1011.16 1011.52 1011.91 1012.34 1012.81 1013.33 1013.90 1014.52 1015.21 1015.95 1016.75 1017.61 1018.51 1019.44 1020.39 1021.35 1022.29 1023.20 1024.06 1024.86 1025.57 1026.20 1026.74 1027.19 1027.56 1027.86 1028.11 1028.33
1010.00 1009.99 1009.97 1009.93 1009.86 1009.76 1009.64 1009.52 1009.42 1009.35 1009.33 1009.36 1009.47 1009.64 1009.87 1010.16 1010.49 1010.87 1011.28 1011.73 1012.21 1012.73 1013.29 1013.91 1014.58 1015.32 1016.13 1017.00 1017.92 1018.89 1019.88 1020.89 1021.88 1022.85 1023.76 1024.60 1025.35 1026.02 1026.59 1027.07 1027.48 1027.82 1028.11 1028.36
1008.75 1008.79 1008.81 1008.81 1008.77 1008.70 1008.60 1008.50 1008.41 1008.35 1008.34 1008.39 1008.52 1008.72 1008.98 1009.31 1009.68 1010.09 1010.54 1011.01 1011.51 1012.05 1012.62 1013.24 1013.91 1014.65 1015.46 1016.33 1017.27 1018.25 1019.27 1020.31 1021.33 1022.33 1023.28 1024.15 1024.95 1025.65 1026.26 1026.79 1027.25 1027.64 1027.99 1028.31
1007.53 1007.56 1007.58 1007.57 1007.53 1007.45 1007.35 1007.24 1007.16 1007.11 1007.12 1007.20 1007.36 1007.60 1007.92 1008.29 1008.72 1009.18 1009.67 1010.18 1010.72 1011.27 1011.86 1012.49 1013.18 1013.92 1014.73 1015.60 1016.54 1017.53 1018.55 1019.60 1020.63 1021.64 1022.60 1023.50 1024.33 1025.07 1025.73 1026.32 1026.84 1027.30 1027.73 1028.13
1006.39 1006.38 1006.35 1006.29 1006.20 1006.09 1005.96 1005.84 1005.75 1005.71 1005.73 1005.85 1006.05 1006.33 1006.70 1007.13 1007.61 1008.12 1008.66 1009.22 1009.79 1010.38 1011.00 1011.65 1012.35 1013.10 1013.91 1014.79 1015.73 1016.71 1017.73 1018.76 1019.79 1020.80 1021.76 1022.67 1023.51 1024.29 1025.00 1025.65 1026.24 1026.79 1027.30 1027.78
1005.36 1005.28 1005.17 1005.03 1004.87 1004.69 1004.52 1004.36 1004.26 1004.21 1004.26 1004.39 1004.62 1004.95 1005.36 1005.83 1006.35 1006.92 1007.50 1008.10 1008.71 1009.34 1009.99 1010.67 1011.40 1012.17 1013.00 1013.89 1014.83 1015.81 1016.82 1017.84 1018.85 1019.84 1020.80 1021.71 1022.57 1023.37 1024.12 1024.83 1025.50 1026.13 1026.73 1027.30
1004.41 1004.23 1004.02 1003.79 1003.54 1003.29 1003.06 1002.86 1002.73 1002.68 1002.73 1002.88 1003.13 1003.49 1003.93 1004.43 1004.99 1005.58 1006.20 1006.84 1007.49 1008.16 1008.85 1009.57 1010.33 1011.14 1012.00 1012.91 1013.86 1014.85 1015.85 1016.86 1017.86 1018.84 1019.79 1020.69 1021.56 1022.39 1023.18 1023.94 1024.67 1025.38 1026.06 1026.71
1003.41 1003.14 1002.83 1002.51 1002.18 1001.86 1001.57 1001.34 1001.18 1001.13 1001.18 1001.34 1001.62 1001.99 1002.45 1002.97 1003.55 1004.17 1004.81 1005.48 1006.16 1006.87 1007.60 1008.37 1009.19 1010.04 1010.95 1011.89 1012.87 1013.87 1014.88 1015.89 1016.89 1017.86 1018.80 1019.70 1020.57 1021.42 1022.24 1023.04 1023.82 1024.60 1025.35 1026.07
1002.25 1001.89 1001.50 1001.10 1000.70 1000.33 1000.01 999.76 999.60 999.55 999.62 999.80 1000.10 1000.49 1000.96 1001.51 1002.10 1002.73 1003.39 1004.08 1004.80 1005.55 1006.33 1007.15 1008.01 1008.93 1009.88 1010.87 1011.89 1012.92 1013.95 1014.97 1015.97 1016.94 1017.87 1018.78 1019.66 1020.51 1021.36 1022.19 1023.02 1023.84 1024.65 1025.43
1000.80 1000.38 999.93 999.48 999.05 998.66 998.34 998.10 997.97 997.96 998.06 998.28 998.61 999.04 999.54 1000.10 1000.71 1001.36 1002.04 1002.75 1003.49 1004.28 1005.10 1005.97 1006.90 1007.86 1008.87 1009.91 1010.97 1012.04 1013.09 1014.13 1015.13 1016.11 1017.04 1017.95 1018.83 1019.70 1020.56 1021.42 1022.28 1023.14 1023.99 1024.82
999.02 998.56 998.09 997.63 997.20 996.84 996.55 996.37 996.30 996.35 996.53 996.81 997.20 997.68 998.22 998.82 999.46 1000.13 1000.84 1001.57 1002.35 1003.16 1004.03 1004.94 1005.91 1006.92 1007.97 1009.06 1010.15 1011.24 1012.32 1013.36 1014.38 1015.35 1016.29 1017.19 1018.08 1018.96 1019.83 1020.72 1021.60 1022.49 1023.38 1024.24
996.99 996.51 996.04 995.60 995.22 994.91 994.70 994.61 994.64 994.80 995.07 995.45 995.93 996.48 997.09 997.74 998.42 999.13 999.87 1000.63 1001.43 1002.28 1003.17 1004.11 1005.10 1006.14 1007.22 1008.32 1009.43 1010.53 1011.61 1012.66 1013.67 1014.64 1015.58 1016.48 1017.37 1018.25 1019.14 1020.04 1020.95 1021.87 1022.79 1023.69
Thickness
5646 5652 5653 5653 5655 5653 5648 5645 5640 5648 5652 5665 5672 5676 5680 5682 5683 5685 5686 5688 5689 5690 5691 5691 5692 5691 5690 5690 5690 5690 5688 5686 5685 5684 5683 5681 5679 5678 5677 5675 5673 5672 5670 5668
5640 5647 5647 5646 5651 5651 5650 5649 5647 5649 5652 5668 5671 5672 5674 5676 5678 5679 5682 5685 5686 5687 5688 5688 5689 5688 5687 5687 5687 5686 5685 5684 5683 5681 5680 5678 5677 5675 5673 5672 5670 5668 5667 5665
5624 5635 5638 5635 5649 5650 5649 5651 5649 5646 5656 5664 5665 5667 5670 5673 5674 5676 5679 5682 5683 5684 5686 5687 5687 5687 5685 5685 5684 5682 5681 5680 5679 5678 5676 5675 5674 5672 5670 5668 5667 5665 5663 5662
5614 5622 5618 5642 5656 5656 5651 5652 5652 5653 5657 5660 5664 5667 5670 5672 5673 5674 5677 5679 5681 5682 5683 5685 5685 5684 5683 5681 5680 5679 5678 5677 5676 5674 5673 5671 5670 5668 5667 5666 5664 5662 5661 5659
5604 5608 5618 5639 5650 5649 5645 5646 5653 5651 5655 5658 5661 5661 5664 5672 5674 5675 5677 5679 5680 5682 5682 5682 5682 5681 5679 5677 5676 5675 5674 5674 5673 5671 5669 5667 5666 5665 5664 5663 5661 5660 5659 5657
5599 5604 5609 5635 5650 5652 5645 5638 5651 5650 5650 5651 5651 5645 5657 5670 5672 5674 5676 5677 5678 5679 5679 5678 5678 5677 5674 5673 5672 5672 5672 5672 5670 5669 5667 5665 5664 5663 5662 5660 5659 5658 5656 5655
5597 5598 5612 5637 5645 5644 5627 5634 5649 5648 5648 5647 5646 5652 5661 5666 5668 5671 5672 5674 5675 5675 5675 5675 5675 5673 5670 5669 5669 5671 5670 5668 5667 5665 5664 5663 5661 5660 5658 5657 5655 5653 5652 5651
5593 5594 5610 5637 5635 5631 5634 5642 5645 5644 5645 5644 5646 5651 5656 5659 5662 5664 5666 5668 5670 5669 5670 5670 5670 5669 5667 5666 5668 5667 5666 5664 5663 5662 5661 5660 5657 5655 5654 5652 5650 5649 5647 5645
5605 5614 5627 5631 5633 5637 5637 5636 5638 5639 5641 5642 5643 5645 5649 5653 5656 5659 5660 5662 5664 5664 5665 5665 5665 5665 5664 5665 5664 5662 5660 5659 5658 5658 5656 5655 5654 5651 5649 5648 5646 5645 5643 5642
5602 5613 5622 5626 5629 5632 5633 5633 5636 5637 5638 5639 5638 5641 5643 5646 5649 5652 5654 5656 5658 5658 5659 5659 5660 5660 5661 5661 5659 5657 5656 5654 5653 5653 5651 5650 5649 5648 5646 5644 5643 5642 5640 5639
5597 5608 5614 5622 5624 5628 5630 5631 5633 5634 5635 5636 5636 5637 5639 5641 5644 5647 5649 5651 5653 5653 5654 5655 5655 5655 5655 5655 5654 5652 5651 5650 5649 5648 5646 5645 5644 5644 5644 5644 5644 5642 5640 5638
5599 5607 5607 5614 5622 5625 5625 5627 5629 5629 5630 5632 5633 5634 5636 5637 5639 5641 5643 5645 5646 5647 5648 5649 5649 5650 5650 5649 5649 5647 5645 5644 5643 5642 5641 5640 5639 5638 5639 5640 5640 5640 5639 5636
5602 5607 5607 5612 5617 5619 5621 5624 5626 5626 5627 5628 5630 5631 5632 5633 5635 5636 5638 5639 5640 5641 5642 5643 5643 5644 5644 5644 5643 5642 5641 5640 5638 5637 5636 5634 5633 5632 5631 5632 5633 5633 5632 5631
5596 5598 5600 5605 5608 5612 5615 5618 5620 5621 5623 5624 5625 5626 5627 5628 5629 5630 5631 5633 5634 5635 5635 5636 5636 5636 5638 5638 5637 5637 5636 5635 5634 5632 5631 5630 5629 5628 5627 5626 5624 5624 5625 5624
5591 5593 5595 5600 5603 5605 5608 5610 5611 5613 5616 5618 5619 5621 5622 5622 5623 5624 5626 5627 5627 5627 5627 5628 5628 5629 5630 5631 5631 5630 5629 5628 5627 5626 5625 5624 5623 5621 5620 5620 5619 5618 5616 5616
5585 5588 5591 5593 5596 5598 5600 5602 5603 5606 5609 5612 5613 5615 5616 5617 5617 5618 5619 5619 5619 5619 5620 5621 5622 5623 5624 5624 5623 5623 5622 5623 5622 5620 5618 5616 5615 5614 5613 5612 5612 5611 5610 5609
5575 5579 5582 5584 5588 5591 5593 5596 5599 5601 5603 5606 5607 5609 5609 5609 5608 5609 5610 5611 5612 5613 5614 5614 5615 5616 5616 5617 5616 5616 5615 5615 5615 5612 5610 5609 5608 5607 5607 5605 5604 5604 5603 5602
5569 5573 5575 5578 5581 5584 5588 5591 5594 5595 5597 5600 5601 5601 5600 5600 5600 5601 5602 5602 5603 5604 5605 5605 5606 5608 5608 5609 5609 5608 5607 5606 5605 5603 5602 5601 5600 5600 5598 5597 5597 5595 5594 5592
5562 5566 5569 5573 5575 5578 5580 5583 5586 5588 5590 5591 5591 5592 5592 5593 5593 5592 5593 5594 5594 5594 5596 5597 5599 5600 5600 5600 5601 5601 5599 5597 5596 5595 5594 5593 5591 5590 5589 5589 5588 5587 5586 5584
5553 5557 5561 5565 5568 5570 5573 5575 5578 5579 5581 5582 5582 5583 5583 5583 5583 5582 5583 5584 5585 5587 5588 5589 5590 5590 5591 5591 5592 5592 5590 5588 5586 5585 5583 5582 5582 5581 5580 5580 5580 5579 5578 5576
5542 5547 5551 5554 5558 5562 5564 5566 5568 5570 5572 5573 5573 5574 5574 5574 5573 5573 5574 5574 5576 5577 5578 5579 5580 5580 5580 5581 5582 5581 5580 5578 5577 5576 5574 5573 5572 5572 5572 5572 5571 5570 5569 5567
5531 5535 5538 5542 5546 5550 5553 5555 5558 5560 5562 5562 5564 5564 5564 5563 5563 5563 5565 5565 5567 5567 5568 5568 5569 5569 5570 5571 5569 5569 5568 5568 5567 5566 5565 5564 5564 5564 5563 5563 5562 5561 5559 5557
5520 5523 5527 5530 5534 5537 5541 5544 5547 5549 5550 5551 5552 5553 5552 5552 5553 5554 5554 5555 5556 5558 5558 5558 5559 5560 5560 5559 5557 5557 5557 5556 5556 5556 5556 5556 5556 5556 5555 5554 5552 5551 5549 5547
5510 5513 5517 5520 5523 5526 5529 5532 5535 5537 5539 5540 5541 5541 5542 5542 5542 5543 5545 5546 5547 5547 5546 5546 5548 5549 5548 5546 5546 5545 5545 5546 5546 5546 5546 5546 5546 5546 5545 5544 5542 5541 5539 5537
5501 5503 5505 5508 5511 5514 5517 5520 5523 5525 5527 5528 5529 5530 5531 5532 5532 5533 5534 5535 5536 5535 5535 5535 5536 5537 5535 5534 5534 5534 5535 5536 5536 5536 5536 5536 5536 5536 5535 5534 5532 5530 5528 5526
5491 5493 5495 5498 5500 5503 5506 5508 5510 5512 5513 5515 5516 5517 5519 5520 5521 5522 5523 5524 5524 5524 5522 5522 5523 5523 5523 5523 5523 5524 5524 5525 5526 5526 5527 5527 5526 5525 5524 5523 5521 5519 5517 5515
5481 5484 5486 5489 5491 5493 5496 5498 5500 5502 5503 5504 5504 5506 5507 5508 5509 5510 5511 5512 5512 5511 5511 5511 5511 5511 5511 5512 5512 5513 5513 5514 5515 5515 5515 5515 5515 5514 5512 5511 5509 5507 5505 5503